Retour au catalogue

STARLINK-31075

ActifCommunicationsVLEO
NORAD 58594·PAYLOAD·🇺🇸 United States

Lancé Dec 19, 2023 depuis Cape Canaveral Space Force Station

Loading…

Prochains Passages (prochaines 24 heures)

TLE

FraisSource: CelesTrak SupGP

Époque: Sep 14, 2026, 21:20 UTC

1 58594C 23200F   26257.88937500 -.00000531  00000+0 -19240-4 0  2577
2 58594  43.0031 179.9830 0001385 276.4013 341.9499 15.27555841    14

Suivez STARLINK-31075 en temps réel avec AllMySat

Download on the App Store